TimePST,TemperatureF,Dew PointF,Humidity,Sea Level PressureIn,VisibilityMPH,Wind Direction,Wind SpeedMPH,Gust SpeedMPH,PrecipitationIn,Events,Conditions,WindDirDegrees,DateUTC
12:35 AM,51.8,51.8,100,30.25,0.5,Calm,Calm,-,0.01,Fog,Fog,0,2012-11-05 08:35:00
12:48 AM,51.8,51.8,100,30.25,0.8,Calm,Calm,-,0.01,,Mist,0,2012-11-05 08:48:00
12:53 AM,50.0,50.0,100,30.27,0.5,Calm,Calm,-,0.01,Fog,Fog,0,2012-11-05 08:53:00
1:30 AM,48.2,48.2,100,30.25,0.2,Calm,Calm,-,N/A,Fog,Fog,0,2012-11-05 09:30:00
1:44 AM,48.2,48.2,100,30.25,0.2,Calm,Calm,-,N/A,Fog,Fog,0,2012-11-05 09:44:00
1:53 AM,50.0,50.0,100,30.26,0.2,Calm,Calm,-,N/A,Fog,Fog,0,2012-11-05 09:53:00
2:05 AM,50.0,50.0,100,30.24,0.2,Calm,Calm,-,N/A,Fog,Fog,0,2012-11-05 10:05:00
2:53 AM,50.0,50.0,100,30.26,0.2,Calm,Calm,-,N/A,Fog,Fog,0,2012-11-05 10:53:00
3:21 AM,50.0,50.0,100,30.22,0.2,Calm,Calm,-,N/A,Fog,Fog,0,2012-11-05 11:21:00
3:48 AM,50.0,50.0,100,30.22,0.2,Calm,Calm,-,N/A,Fog,Fog,0,2012-11-05 11:48:00
3:57 AM,50.0,50.0,100,30.22,0.5,ESE,3.5,-,N/A,Fog,Fog,110,2012-11-05 11:57:00
4:20 AM,50.0,50.0,100,30.21,0.2,Calm,Calm,-,N/A,Fog,Fog,0,2012-11-05 12:20:00
4:33 AM,50.0,50.0,100,30.21,0.2,Calm,Calm,-,N/A,Fog,Fog,0,2012-11-05 12:33:00
4:45 AM,48.2,48.2,100,30.20,1.0,Calm,Calm,-,N/A,,Mist,0,2012-11-05 12:45:00
4:53 AM,48.9,48.9,100,30.22,3.0,Calm,Calm,-,N/A,,Scattered Clouds,0,2012-11-05 12:53:00
4:56 AM,48.2,48.2,100,30.20,1.8,Calm,Calm,-,N/A,,Scattered Clouds,0,2012-11-05 12:56:00
5:00 AM,48.2,48.2,100,30.20,0.8,Calm,Calm,-,N/A,,Mist,0,2012-11-05 13:00:00
5:09 AM,46.4,46.4,100,30.20,0.2,Calm,Calm,-,N/A,Fog,Fog,0,2012-11-05 13:09:00
5:16 AM,46.4,46.4,100,30.20,0.5,Calm,Calm,-,N/A,Fog,Fog,0,2012-11-05 13:16:00
5:18 AM,46.4,46.4,100,30.20,0.2,Calm,Calm,-,N/A,Fog,Fog,0,2012-11-05 13:18:00
5:34 AM,46.4,46.4,100,30.21,0.8,Calm,Calm,-,N/A,,Mist,0,2012-11-05 13:34:00
5:39 AM,46.4,46.4,100,30.21,3.0,Calm,Calm,-,N/A,,Mostly Cloudy,0,2012-11-05 13:39:00
5:45 AM,46.4,46.4,100,30.21,1.8,Calm,Calm,-,N/A,,Overcast,0,2012-11-05 13:45:00
5:53 AM,46.9,46.9,100,30.23,0.8,Calm,Calm,-,N/A,,Mostly Cloudy,0,2012-11-05 13:53:00
6:09 AM,48.2,48.2,100,30.21,0.8,Calm,Calm,-,N/A,,Mist,0,2012-11-05 14:09:00
6:21 AM,48.2,48.2,100,30.21,1.0,Calm,Calm,-,N/A,,Mist,0,2012-11-05 14:21:00
6:30 AM,48.2,48.2,100,30.20,0.8,Calm,Calm,-,N/A,,Mist,0,2012-11-05 14:30:00
6:43 AM,46.4,46.4,100,30.20,0.2,Calm,Calm,-,N/A,Fog,Fog,0,2012-11-05 14:43:00
6:53 AM,46.9,46.9,100,30.22,0.2,Calm,Calm,-,N/A,Fog,Fog,0,2012-11-05 14:53:00
7:13 AM,46.4,46.4,100,30.20,0.2,Calm,Calm,-,N/A,Fog,Fog,0,2012-11-05 15:13:00
7:24 AM,46.4,46.4,100,30.20,0.2,Calm,Calm,-,N/A,Fog,Fog,0,2012-11-05 15:24:00
7:37 AM,48.2,48.2,100,30.20,0.2,Calm,Calm,-,N/A,Fog,Fog,0,2012-11-05 15:37:00
7:53 AM,48.9,48.9,100,30.22,0.2,Calm,Calm,-,N/A,Fog,Fog,0,2012-11-05 15:53:00
8:11 AM,48.2,48.2,100,30.20,0.2,ESE,3.5,-,N/A,Fog,Fog,120,2012-11-05 16:11:00
8:18 AM,50.0,50.0,100,30.20,0.5,Calm,Calm,-,N/A,Fog,Fog,0,2012-11-05 16:18:00
8:22 AM,51.8,51.8,100,30.20,2.0,Calm,Calm,-,N/A,,Mostly Cloudy,0,2012-11-05 16:22:00
8:25 AM,51.8,51.8,100,30.20,6.0,Calm,Calm,-,N/A,,Scattered Clouds,0,2012-11-05 16:25:00
8:53 AM,54.0,53.1,97,30.21,10.0,Calm,Calm,-,N/A,,Clear,0,2012-11-05 16:53:00
9:30 AM,55.4,53.6,94,30.19,2.5,NW,4.6,-,N/A,,Partly Cloudy,320,2012-11-05 17:30:00
9:37 AM,55.4,53.6,94,30.19,1.8,NW,3.5,-,N/A,,Mostly Cloudy,310,2012-11-05 17:37:00
9:53 AM,54.0,54.0,100,30.19,2.5,Calm,Calm,-,N/A,,Mostly Cloudy,0,2012-11-05 17:53:00
9:59 AM,55.4,53.6,94,30.17,4.0,Calm,Calm,-,N/A,,Scattered Clouds,0,2012-11-05 17:59:00
10:53 AM,57.9,54.0,87,30.17,6.0,WNW,3.5,-,N/A,,Clear,290,2012-11-05 18:53:00
11:53 AM,59.0,54.0,83,30.15,7.0,West,4.6,-,N/A,,Clear,260,2012-11-05 19:53:00
12:53 PM,62.1,54.0,75,30.12,10.0,SW,3.5,-,N/A,,Clear,220,2012-11-05 20:53:00
1:53 PM,63.0,55.0,75,30.09,10.0,SSW,8.1,-,N/A,,Clear,200,2012-11-05 21:53:00
2:53 PM,64.9,57.0,75,30.08,10.0,SSW,3.5,-,N/A,,Clear,200,2012-11-05 22:53:00
3:29 PM,62.6,55.4,77,30.07,2.5,NW,3.5,-,N/A,,Haze,320,2012-11-05 23:29:00
3:39 PM,62.6,55.4,77,30.07,3.0,Calm,Calm,-,N/A,,Haze,0,2012-11-05 23:39:00
3:53 PM,63.0,55.9,78,30.08,3.0,Calm,Calm,-,N/A,,Haze,0,2012-11-05 23:53:00
4:53 PM,60.1,55.0,83,30.08,10.0,South,6.9,-,N/A,,Clear,190,2012-11-06 00:53:00
5:53 PM,54.0,53.1,97,30.09,8.0,South,6.9,-,N/A,,Clear,170,2012-11-06 01:53:00
6:53 PM,53.1,53.1,100,30.08,7.0,South,6.9,-,N/A,,Clear,180,2012-11-06 02:53:00
7:46 PM,51.8,51.8,100,30.06,5.0,South,4.6,-,N/A,,Scattered Clouds,170,2012-11-06 03:46:00
7:53 PM,53.1,53.1,100,30.08,5.0,South,3.5,-,N/A,,Mostly Cloudy,170,2012-11-06 03:53:00
8:07 PM,53.6,53.6,100,30.07,6.0,Calm,Calm,-,N/A,,Scattered Clouds,0,2012-11-06 04:07:00
8:53 PM,51.1,51.1,100,30.09,10.0,Calm,Calm,-,N/A,,Clear,0,2012-11-06 04:53:00
9:53 PM,50.0,50.0,100,30.09,8.0,Calm,Calm,-,0.01,,Clear,0,2012-11-06 05:53:00
10:53 PM,50.0,50.0,100,30.08,10.0,Calm,Calm,-,N/A,,Clear,0,2012-11-06 06:53:00
11:53 PM,48.9,48.0,97,30.07,9.0,Calm,Calm,-,N/A,,Clear,0,2012-11-06 07:53:00